Location: Unspecified
(0.0000°N, 0.0000°E)
Time: 03:12:44
(UTC+00:00)

Tiangong 2 - Pass Details

Date: 10 January 2018
Orbit: 382 x 387 km, 42.8° (Epoch: 19 April)

Event Time Altitude Azimuth Distance (km) Brightness Sun altitude
Rises 05:13:58 0° 195° (SSW) 2,254 5.1 -12.4°
Reaches altitude 10° 05:16:53 10° 165° (SSE) 1,402 4.4 -11.7°
Maximum altitude 05:18:26 13° 136° (SE) 1,237 4.7 -11.3°
Drops below altitude 10° 05:20:00 10° 106° (ESE) 1,402 5.5 -11.0°
Sets 05:22:55 0° 76° (ENE) 2,256 5.9 -10.3°
